Home > Weather > Cheyenne > Past weeks

Flag for USA Past Weather in Cheyenne, Wyoming, USA — Yesterday and Last 2 Weeks

Now
65 °F

Clear.


Feels Like: 65 °F
Forecast: 64 / 87 °F
Wind: 5 mph from Southwest

Location: Cheyenne Airport

Current Time: Jul 31, 2016 at 1:40:39 AM

Latest Report: Jul 31, 2016 at 12:53 AM


Visibility: 10 mi

Pressure: 29.76 "Hg (23.94 "Hg at 1855m altitude)

Humidity: 78%

Dew Point: 58 °F

Location of CheyenneLocation

Past Weather in Cheyenne — Graph

°F

Cheyenne Temperature Yesterday

Maximum temperature yesterday: 86 °F (at 2:53 PM)
Minimum temperature yesterday: 58 °F (at 1:53 AM)
Average temperature yesterday: 69 °F

High & Low Weather Summary for the Past Weeks

 TemperatureHumidityPressure
High93 °F (Jul 23, 1:53 PM)100% (Jul 28, 7:53 AM)30.25 "Hg (Jul 28, 7:53 AM)
Low54 °F (Jul 25, 5:53 AM)12% (Jul 16, 11:53 AM)29.70 "Hg (Jul 16, 2:53 PM)
Average72 °F52%29.95 "Hg
* Reported Jul 15 11:53 PM — Jul 30 11:53 PM, Cheyenne, Weather by CustomWeather, © 2016

Note: Actual official high and low records may vary slightly from our data, if they occured in-between our weather recording intervals... More about our weather records

Advertising

Cheyenne Weather History for the Previous 24 Hours

Scroll right to see more
 ConditionsComfort  
Time TempWeatherWind HumidityBarometerVisibility
11:53 PM
Sat, Jul 30
68 °FClear.No wind73%29.77 "Hg10 mi
10:53 PM68 °FClear.7 mph70%29.80 "Hg10 mi
9:53 PM72 °FClear.No wind61%29.83 "Hg10 mi
8:53 PM74 °FSunny.15 mph56%29.80 "Hg10 mi
7:53 PM76 °FSunny.10 mph48%29.79 "Hg10 mi
6:53 PM81 °FSunny.9 mph39%29.75 "Hg10 mi
5:53 PM84 °FBroken clouds.10 mph30%29.76 "Hg10 mi
4:53 PM85 °FSunny.9 mph26%29.75 "Hg10 mi
3:53 PM86 °FScattered clouds.10 mph27%29.77 "Hg10 mi
2:53 PM86 °FSunny.8 mph26%29.79 "Hg10 mi
1:53 PM84 °FSunny.9 mph32%29.81 "Hg10 mi
12:53 PM82 °FSunny.6 mph40%29.83 "Hg10 mi
11:53 AM77 °FSunny.7 mph54%29.85 "Hg10 mi
10:53 AM74 °FSunny.5 mph62%29.87 "Hg10 mi
9:53 AM67 °FScattered clouds.No wind76%29.89 "Hg8 mi
8:53 AM63 °FFog.6 mph87%29.90 "Hg6 mi
7:53 AM61 °FFog.6 mph97%29.89 "Hg3 mi
7:04 AM61 °FFog.5 mph97%30.12 "Hg1 mi
6:53 AM60 °FFog.3 mph100%29.88 "Hg0 mi
6:02 AM60 °FFog.7 mph100%30.11 "Hg1 mi
5:53 AM60 °FFog.8 mph100%29.88 "Hg1 mi
5:04 AM60 °FFog.7 mph93%30.11 "Hg6 mi
4:53 AM61 °FLow clouds.6 mph90%29.90 "Hg7 mi
3:53 AM60 °FMostly cloudy.6 mph90%29.88 "Hg10 mi
2:53 AM58 °FClear.5 mph90%29.91 "Hg10 mi
2:04 AM59 °FMostly cloudy.3 mph87%30.16 "Hg10 mi
1:53 AM58 °FPartly cloudy.No wind87%29.92 "Hg10 mi
Weather by CustomWeather, © 2016

See weather overviewHow to use our weather pages